Location: Unspecified
(42.2730°N, 83.7130°W)
Time: 22:30:21
(UTC+00:00)

Hubble Space Telescope - Pass Details

Date: 14 December 2025
Orbit: 479 x 481 km, 28.5° (Epoch: 14 January)

Event Time Altitude Azimuth Distance (km) Brightness Sun altitude
Rises 23:05:43 0° 232° (SW) 2,525 5.8 -11.2°
Reaches altitude 10° 23:10:07 10° 184° (S) 1,645 3.6 -12.0°
Maximum altitude 23:10:22 10° 180° (S) 1,642 3.5 -12.0°
Drops below altitude 10° 23:10:38 10° 176° (S) 1,645 3.5 -12.0°
Enters shadow 23:14:34 - 132° (SE) 2,382 3.8 -12.7°
